Zurück zum Katalog

STARLINK-37878

AktivKommunikationSSO
NORAD 69479·PAYLOAD·🇺🇸 United States

Gestartet Jun 11, 2026 von Vandenberg Space Force Base

Loading…

Nächste Überflüge (nächste 24 Stunden)

TLE

AktuellSource: CelesTrak SupGP

Epoche: Sep 15, 2026, 04:16 UTC

1 69479C 26131B   26258.17826389 -.00069379  00000+0 -21539-2 0  2580
2 69479  97.2830 279.0596 0001458  88.5911  59.8974 15.33470589    12

Verfolge STARLINK-37878 in Echtzeit mit AllMySat

Download on the App Store